Weather History for Newberry, MI

Change the Weather History Date:

Thursday, February 13, 2014

  Actual Average Record
Temperature  
Mean Temperature 10 °F -  
Max Temperature 21 °F 25 °F 46 °F (1984)
Min Temperature -1 °F 7 °F -15 °F (1929)
Degree Days  
Heating Degree Days 55    
Moisture  
Dew Point 13 °F    
Average Humidity 89    
Maximum Humidity 94    
Minimum Humidity 80    
Precipitation  
Precipitation 0.00 in - - ()
Sea Level Pressure  
Sea Level Pressure 29.74 in    
Wind  
Wind Speed 7 mph (SE)    
Max Wind Speed 21 mph    
Max Gust Speed 26 mph    
Visibility 6 miles    
Events Snow    
Averages and records for this station are not official NWS values.
T = Trace of Precipitation, MM = Missing Value Source: NWS Daily Summary

Daily Weather History Graph

Daily Weather History Graph

Search for Another Location

Airport:

Trip Planner

Search our weather history database for the weather conditions in past years. The results will help you decide how hot, cold, wet, or windy it might be!

Date:

Astronomy

Feb. 13, 2014 Rise Set
Actual Time 7:48 AM EST 6:04 PM EST
Civil Twilight 7:17 AM EST 6:35 PM EST
Nautical Twilight 6:41 AM EST 7:10 PM EST
Astronomical Twilight 6:07 AM EST 7:45 PM EST
Moon 5:12 PM EST (2/13) 6:41 AM EST (2/13)
Length of Visible Light 11h 18m
Length of Day
10h 16m
Waxing Gibbous, 98% of the Moon is Illuminated
Feb 13
Waxing Gibbous
Feb 14
Full
Feb 22
Last Quarter
Mar 1
New
Mar 8
First Quarter

Hourly Weather History & Observations

Time (EST) Temp. Windchill Dew Point Humidity Pressure Visibility Wind Dir Wind Speed Gust Speed Precip Events Conditions
12:15 AM 5.9 °F -1.1 °F 3.2 °F 89% 29.98 in 10.0 mi SSW 3.5 mph - N/A   Clear
12:35 AM 4.1 °F -5.1 °F 1.9 °F 91% 29.97 in 7.0 mi SSW 4.6 mph - N/A   Clear
12:55 AM 0.9 °F -8.9 °F -1.7 °F 89% 29.97 in 10.0 mi SSW 4.6 mph - N/A   Clear
1:15 AM 5.4 °F -3.6 °F 3.2 °F 91% 29.96 in 10.0 mi SSW 4.6 mph - N/A   Clear
1:35 AM 4.1 °F -6.7 °F 2.1 °F 91% 29.96 in 10.0 mi SSW 5.8 mph - N/A   Clear
1:55 AM 2.1 °F - -0.4 °F 89% 29.95 in 10.0 mi Calm Calm - N/A   Clear
2:15 AM -1.1 °F - -3.8 °F 88% 29.95 in 10.0 mi Calm Calm - N/A   Clear
2:35 AM -0.4 °F - -2.6 °F 91% 29.95 in 7.0 mi Calm Calm - N/A   Clear
2:54 AM 2.3 °F - 0.3 °F 91% 29.95 in 7.0 mi Calm Calm - N/A   Clear
3:15 AM -1.8 °F -12.0 °F -4.7 °F 88% 29.94 in 7.0 mi ESE 4.6 mph - N/A   Mostly Cloudy
3:35 AM 2.5 °F - -0.0 °F 89% 29.94 in 10.0 mi Calm Calm - N/A   Overcast
3:55 AM 4.5 °F - 2.5 °F 91% 29.93 in 10.0 mi Calm Calm - N/A   Overcast
4:15 AM 5.4 °F - 3.2 °F 91% 29.93 in 10.0 mi Calm Calm - N/A Snow Light Snow
4:35 AM 5.7 °F - 3.0 °F 89% 29.93 in 7.0 mi Calm Calm - N/A   Overcast
4:55 AM 5.9 °F - 3.7 °F 91% 29.92 in 7.0 mi Calm Calm - N/A Snow Light Snow
5:15 AM 7.5 °F - 5.4 °F 91% 29.92 in 10.0 mi Calm Calm - N/A   Overcast
5:35 AM 8.1 °F - 5.9 °F 91% 29.92 in 10.0 mi Calm Calm - N/A   Overcast
5:55 AM 8.8 °F 2.2 °F 6.8 °F 92% 29.92 in 10.0 mi East 3.5 mph - N/A   Overcast
6:15 AM 10.2 °F -0.6 °F 8.2 °F 92% 29.91 in 10.0 mi ESE 6.9 mph - N/A   Overcast
6:35 AM 11.3 °F -0.4 °F 9.3 °F 92% 29.90 in 10.0 mi ESE 8.1 mph - N/A   Overcast
6:55 AM 12.0 °F 1.5 °F 10.0 °F 92% 29.89 in 10.0 mi ESE 6.9 mph - N/A   Overcast
7:15 AM 12.7 °F 2.4 °F 10.9 °F 92% 29.88 in 7.0 mi ESE 6.9 mph - N/A   Overcast
7:35 AM 13.3 °F 3.0 °F 11.5 °F 93% 29.87 in 7.0 mi ESE 6.9 mph - N/A   Overcast
7:55 AM 13.6 °F 3.5 °F 11.8 °F 93% 29.87 in 7.0 mi ESE 6.9 mph - N/A   Overcast
8:15 AM 14.5 °F 3.6 °F 12.9 °F 93% 29.86 in 5.0 mi ESE 8.1 mph - N/A Snow Light Snow
8:35 AM 15.8 °F 5.1 °F 14.2 °F 93% 29.86 in 2.5 mi SE 8.1 mph - N/A Snow Light Snow
8:55 AM 17.4 °F 4.7 °F 15.8 °F 93% 29.86 in 2.5 mi SE 11.5 mph - N/A Snow Light Snow
9:15 AM 17.6 °F 5.7 °F 16.2 °F 94% 29.84 in 2.0 mi SE 10.4 mph - N/A Snow Light Snow
9:35 AM 18.1 °F 5.6 °F 16.5 °F 93% 29.81 in 2.0 mi SE 11.5 mph - N/A Snow Light Snow
9:55 AM 18.5 °F 5.5 °F 16.7 °F 93% 29.81 in 2.5 mi SE 12.7 mph 18.4 mph N/A Snow Light Snow
10:15 AM 18.5 °F 4.3 °F 17.1 °F 94% 29.79 in 5.0 mi ESE 15.0 mph 18.4 mph N/A   Overcast
10:35 AM 19.0 °F 5.6 °F 17.2 °F 93% 29.78 in 10.0 mi SE 13.8 mph - N/A   Overcast
10:55 AM 19.2 °F 5.8 °F 17.4 °F 93% 29.78 in 7.0 mi SE 13.8 mph - N/A   Overcast
11:15 AM 19.4 °F 6.6 °F 17.4 °F 92% 29.78 in 7.0 mi SE 12.7 mph 16.1 mph N/A   Overcast
11:35 AM 20.1 °F 8.1 °F 17.4 °F 89% 29.77 in 7.0 mi SE 11.5 mph - N/A   Overcast
11:55 AM 20.7 °F 9.5 °F 17.1 °F 86% 29.75 in 10.0 mi SE 10.4 mph - N/A   Overcast
12:15 PM 21.2 °F 8.9 °F 16.9 °F 83% 29.74 in 10.0 mi SE 12.7 mph 16.1 mph N/A   Overcast
12:35 PM 21.2 °F 9.5 °F 17.2 °F 85% 29.72 in 10.0 mi ESE 11.5 mph - N/A   Overcast
12:55 PM 21.2 °F 9.5 °F 16.9 °F 83% 29.71 in 10.0 mi ESE 11.5 mph - N/A   Overcast
1:15 PM 21.0 °F 7.1 °F 16.2 °F 81% 29.69 in 7.0 mi SE 16.1 mph 20.7 mph N/A   Overcast
1:35 PM 21.0 °F 8.1 °F 15.8 °F 80% 29.67 in 5.0 mi ESE 13.8 mph 21.9 mph N/A Snow Light Snow
1:55 PM 21.0 °F 8.1 °F 16.5 °F 83% 29.67 in 5.0 mi ESE 13.8 mph - N/A Snow Light Snow
2:35 PM 21.9 °F 8.2 °F 17.1 °F 82% 29.65 in 5.0 mi SE 16.1 mph 23.0 mph N/A Snow Light Snow
2:55 PM 21.7 °F 6.3 °F 17.1 °F 82% 29.64 in 1.8 mi ESE 20.7 mph 26.5 mph N/A Snow Light Snow
3:15 PM 21.7 °F 8.0 °F 17.6 °F 84% 29.62 in 1.8 mi SE 16.1 mph 19.6 mph N/A Snow Light Snow
3:35 PM 21.7 °F 8.0 °F 17.6 °F 84% 29.61 in 1.5 mi SE 16.1 mph 21.9 mph N/A Snow Light Snow
3:55 PM 21.7 °F 8.0 °F 18.0 °F 85% 29.61 in 1.5 mi SE 16.1 mph - N/A Snow Light Snow
4:15 PM 21.7 °F 8.5 °F 18.0 °F 85% 29.60 in 3.0 mi SE 15.0 mph 24.2 mph N/A Snow Light Snow
4:35 PM 21.7 °F 7.5 °F 18.0 °F 85% 29.59 in 2.0 mi SE 17.3 mph - N/A Snow Light Snow
4:54 PM 21.6 °F 7.8 °F 17.6 °F 85% 29.58 in 1.5 mi SE 16.1 mph 24.2 mph N/A Snow Light Snow
5:15 PM 21.2 °F 8.3 °F 17.2 °F 85% 29.57 in 2.0 mi ESE 13.8 mph 20.7 mph N/A Snow Light Snow
5:35 PM 21.2 °F 7.8 °F 17.6 °F 86% 29.56 in 3.0 mi ESE 15.0 mph 20.7 mph N/A Snow Light Snow
5:55 PM 21.7 °F 10.8 °F 17.6 °F 84% 29.56 in 5.0 mi ESE 10.4 mph - N/A Snow Light Snow
6:15 PM 21.6 °F 9.3 °F 18.0 °F 86% 29.56 in 3.0 mi ESE 12.7 mph 21.9 mph N/A Snow Light Snow
6:35 PM 21.0 °F 8.1 °F 17.8 °F 87% 29.56 in 3.0 mi ESE 13.8 mph - N/A Snow Light Snow
6:55 PM 20.7 °F 8.2 °F 18.0 °F 89% 29.56 in 1.8 mi ESE 12.7 mph 19.6 mph N/A Snow Light Snow
7:15 PM 20.3 °F 8.3 °F 17.8 °F 90% 29.56 in 2.5 mi ESE 11.5 mph 18.4 mph N/A Snow Light Snow
7:35 PM 20.3 °F 9.8 °F 18.0 °F 91% 29.55 in 3.0 mi ESE 9.2 mph - N/A Snow Light Snow
7:55 PM 20.3 °F 7.7 °F 18.0 °F 91% 29.55 in 2.5 mi ESE 12.7 mph - N/A Snow Light Snow
8:15 PM 20.3 °F 9.0 °F 18.1 °F 91% 29.54 in 1.8 mi ESE 10.4 mph 16.1 mph N/A Snow Light Snow
8:35 PM 20.3 °F 9.8 °F 18.0 °F 91% 29.54 in 1.8 mi ESE 9.2 mph - N/A Snow Light Snow
8:55 PM 20.3 °F 9.8 °F 18.1 °F 91% 29.54 in 2.0 mi ESE 9.2 mph - N/A Snow Light Snow
9:15 PM 20.3 °F 9.8 °F 18.3 °F 92% 29.53 in 1.5 mi ESE 9.2 mph - N/A Snow Light Snow
9:35 PM 20.3 °F 9.0 °F 18.3 °F 92% 29.53 in 1.2 mi ESE 10.4 mph - N/A Snow Light Snow
9:55 PM 20.3 °F 8.3 °F 18.3 °F 92% 29.52 in 1.2 mi ESE 11.5 mph - N/A Snow Light Snow
10:15 PM 20.1 °F 8.1 °F 18.3 °F 93% 29.51 in 0.8 mi ESE 11.5 mph - N/A Snow Snow
10:35 PM 20.1 °F 9.5 °F 18.3 °F 93% 29.51 in 1.0 mi ESE 9.2 mph - N/A Snow Snow
10:55 PM 19.9 °F 9.3 °F 18.1 °F 93% 29.50 in 0.8 mi ESE 9.2 mph - N/A Snow Snow
11:14 PM 19.9 °F 8.6 °F 18.0 °F 92% 29.49 in 0.8 mi ESE 10.4 mph - N/A Snow Snow
11:35 PM 19.6 °F 9.7 °F 17.8 °F 93% 29.48 in 4.0 mi ESE 8.1 mph - N/A Snow Light Snow
11:55 PM 19.8 °F 10.8 °F 17.6 °F 91% 29.47 in 5.0 mi East 6.9 mph - N/A Snow Light Snow